ARA227 DNCA-DNPO

Flight info

Callsign ARA227
Flight time 0h 23m
Altitude 12000
Route ODRED DCT PO418 DCT IPUKA DCT BINIM DCT PO400
Aircraft B737/M-SDE2E3FGHIRWXY/LB1

Departure

Time 2026-04-15 17:53
Airport Margaret Ekpo International Airport (DNCA)

Arrival

Time 2026-04-15 18:16
Airport Port Harcourt International Airport (DNPO)
Time Latitude Longitude Altitude Speed Heading
2026-04-15 17:24 4.97013 8.34679 206 ft 0 kts 208°
2026-04-15 17:51 4.97004 8.34674 203 ft 3 kts 208°
2026-04-15 17:51 4.96983 8.34653 212 ft 6 kts 230°
2026-04-15 17:52 4.96954 8.34610 216 ft 9 kts 246°
2026-04-15 17:52 4.96969 8.34538 217 ft 15 kts 296°
2026-04-15 17:52 4.97027 8.34447 208 ft 15 kts 342°
2026-04-15 17:52 4.97220 8.34537 209 ft 71 kts 27°
2026-04-15 17:53 4.97915 8.34886 211 ft 149 kts 25°
2026-04-15 17:53 4.98919 8.35355 826 ft 157 kts 26°
2026-04-15 17:53 4.99885 8.35829 1742 ft 154 kts 29°
2026-04-15 17:53 5.00879 8.36230 2448 ft 165 kts
2026-04-15 17:54 5.02069 8.35892 2790 ft 198 kts 319°
2026-04-15 17:54 5.02794 8.34638 3118 ft 227 kts 277°
2026-04-15 17:54 5.02490 8.33054 3596 ft 243 kts 241°
2026-04-15 17:54 5.01553 8.31539 4024 ft 267 kts 236°
2026-04-15 17:55 5.00517 8.29954 4942 ft 273 kts 236°
2026-04-15 17:55 4.99494 8.28314 5892 ft 282 kts 238°
2026-04-15 17:55 4.98529 8.26579 6808 ft 288 kts 243°
2026-04-15 17:55 4.97740 8.24714 7725 ft 293 kts 250°
2026-04-15 17:56 4.97147 8.22734 8622 ft 300 kts 256°
2026-04-15 17:56 4.96717 8.20665 9505 ft 306 kts 261°
2026-04-15 17:56 4.96411 8.18533 10303 ft 313 kts 264°
2026-04-15 17:56 4.96180 8.16274 10597 ft 340 kts 265°
2026-04-15 17:57 4.96001 8.13823 10793 ft 366 kts 267°
2026-04-15 17:57 4.95857 8.11199 11122 ft 384 kts 268°
2026-04-15 17:57 4.95740 8.08541 11772 ft 390 kts 268°
2026-04-15 17:57 4.95634 8.05813 12532 ft 393 kts 268°
2026-04-15 17:58 4.95535 8.03066 13270 ft 396 kts 268°
2026-04-15 17:58 4.95438 8.00288 13914 ft 401 kts 268°
2026-04-15 17:58 4.95340 7.97476 14495 ft 406 kts 268°
2026-04-15 17:58 4.95240 7.94625 15081 ft 410 kts 268°
2026-04-15 17:59 4.95140 7.91770 15678 ft 409 kts 268°
2026-04-15 17:59 4.95039 7.88929 15933 ft 408 kts 268°
2026-04-15 17:59 4.94936 7.86024 15944 ft 425 kts 268°
2026-04-15 17:59 4.94829 7.83001 15959 ft 440 kts 268°
2026-04-15 18:00 4.94718 7.79890 15952 ft 450 kts 268°
2026-04-15 18:00 4.94643 7.76740 15941 ft 453 kts 271°
2026-04-15 18:00 4.94947 7.73604 15949 ft 451 kts 279°
2026-04-15 18:00 4.95449 7.70505 15941 ft 451 kts 280°
2026-04-15 18:01 4.95973 7.67403 15939 ft 451 kts 280°
2026-04-15 18:01 4.96482 7.64339 15935 ft 451 kts 280°
2026-04-15 18:01 4.96983 7.61233 15944 ft 451 kts 279°
2026-04-15 18:01 4.97471 7.58127 15946 ft 451 kts 279°
2026-04-15 18:02 4.97953 7.55016 15943 ft 451 kts 279°
2026-04-15 18:02 4.98432 7.51904 15949 ft 452 kts 279°
2026-04-15 18:02 4.98914 7.48787 15945 ft 452 kts 279°
2026-04-15 18:02 4.99386 7.45740 15865 ft 432 kts 280°
2026-04-15 18:03 5.00100 7.42912 15699 ft 405 kts 290°
2026-04-15 18:03 5.01049 7.40356 15548 ft 378 kts 292°
2026-04-15 18:03 5.01989 7.37980 15407 ft 355 kts 293°
2026-04-15 18:03 5.02871 7.35752 15286 ft 335 kts 293°
2026-04-15 18:04 5.03698 7.33629 15044 ft 321 kts 293°
2026-04-15 18:04 5.04493 7.31559 14550 ft 318 kts 292°
2026-04-15 18:04 5.05278 7.29488 14026 ft 317 kts 292°
2026-04-15 18:04 5.06028 7.27496 13548 ft 314 kts 292°
2026-04-15 18:05 5.06792 7.25458 13029 ft 310 kts 292°
2026-04-15 18:05 5.07547 7.23437 12495 ft 308 kts 292°
2026-04-15 18:05 5.08296 7.21431 11973 ft 306 kts 292°
2026-04-15 18:05 5.09039 7.19438 11444 ft 304 kts 292°
2026-04-15 18:06 5.09774 7.17465 10942 ft 301 kts 292°
2026-04-15 18:06 5.10506 7.15502 10454 ft 299 kts 292°
2026-04-15 18:06 5.11235 7.13549 9980 ft 296 kts 292°
2026-04-15 18:06 5.11983 7.11632 9446 ft 294 kts 300°
2026-04-15 18:07 5.13327 7.10160 8871 ft 285 kts 333°
2026-04-15 18:07 5.15163 7.09669 8558 ft 269 kts
2026-04-15 18:07 5.16978 7.09760 8161 ft 263 kts
2026-04-15 18:07 5.18794 7.09938 7652 ft 263 kts
2026-04-15 18:08 5.20624 7.10135 7080 ft 266 kts
2026-04-15 18:08 5.22475 7.10341 6512 ft 268 kts
2026-04-15 18:08 5.24330 7.10555 5987 ft 268 kts
2026-04-15 18:08 5.26184 7.10694 5473 ft 267 kts 353°
2026-04-15 18:09 5.27869 7.09979 5093 ft 262 kts 321°
2026-04-15 18:09 5.28697 7.09114 4956 ft 260 kts 304°
2026-04-15 18:09 5.29375 7.07449 4705 ft 260 kts 277°
2026-04-15 18:09 5.29205 7.05662 4478 ft 259 kts 248°
2026-04-15 18:10 5.28243 7.04212 4285 ft 245 kts 220°
2026-04-15 18:10 5.26807 7.03376 4016 ft 236 kts 198°
2026-04-15 18:10 5.25183 7.03102 3747 ft 240 kts 183°
2026-04-15 18:10 5.23510 7.03058 3462 ft 238 kts 181°
2026-04-15 18:11 5.21898 7.03037 3317 ft 225 kts 181°
2026-04-15 18:11 5.20389 7.03011 3216 ft 209 kts 181°
2026-04-15 18:11 5.18986 7.02981 3102 ft 194 kts 181°
2026-04-15 18:11 5.17685 7.02950 3002 ft 180 kts 182°
2026-04-15 18:12 5.16468 7.02897 2877 ft 174 kts 192°
2026-04-15 18:12 5.15401 7.02375 2763 ft 170 kts 208°
2026-04-15 18:12 5.14351 7.01804 2569 ft 172 kts 207°
2026-04-15 18:12 5.13298 7.01243 2339 ft 169 kts 207°
2026-04-15 18:13 5.12300 7.00711 2121 ft 164 kts 207°
2026-04-15 18:13 5.11279 7.00167 1937 ft 165 kts 207°
2026-04-15 18:13 5.10270 6.99627 1655 ft 165 kts 207°
2026-04-15 18:14 5.08338 6.98565 1230 ft 155 kts 208°
2026-04-15 18:14 5.07333 6.98007 1038 ft 162 kts 207°
2026-04-15 18:14 5.06454 6.97541 1142 ft 135 kts 209°
2026-04-15 18:14 5.05673 6.97079 832 ft 128 kts 205°
2026-04-15 18:15 5.04883 6.96687 570 ft 129 kts 204°
2026-04-15 18:15 5.04052 6.96286 407 ft 137 kts 203°
2026-04-15 18:15 5.03213 6.95837 219 ft 133 kts 208°
2026-04-15 18:15 5.02399 6.95404 78 ft 132 kts 207°
2026-04-15 18:16 5.01673 6.95022 68 ft 92 kts 207°
2026-04-15 18:16 5.01292 6.94822 66 ft 41 kts 207°
2026-04-15 18:16 5.01049 6.94717 66 ft 35 kts 184°
2026-04-15 18:16 5.00844 6.94728 64 ft 21 kts 135°
2026-04-15 18:17 5.00813 6.94841 61 ft 10 kts 112°
2026-04-15 18:17 5.00791 6.94843 60 ft 3 kts 197°
2026-04-15 18:17 5.00772 6.94834 63 ft 2 kts 206°
2026-04-15 18:17 5.00762 6.94829 62 ft 0 kts 207°